Grand Island, NE

6:02 AM CST on January 18, 2018 (GMT -0600)
Central Nebraska Regional

Weather History for KGRI - May, 2012

Change the Weather History Date:

Friday, May 25, 2012

  Actual Average Record
Temperature  
Mean Temperature 61 °F 64 °F  
Max Temperature 69 °F 76 °F 100 °F (1967)
Min Temperature 53 °F 53 °F 33 °F (1925)
Degree Days  
Heating Degree Days 4 3  
Month to date heating degree days 54 156  
Since 1 July heating degree days 5030 6158  
Cooling Degree Days 0 3  
Month to date cooling degree days 105 36  
Year to date cooling degree days 150 47  
Growing Degree Days 11 (Base 50)    
Moisture  
Dew Point 55 °F    
Average Humidity 81    
Maximum Humidity 93    
Minimum Humidity 68    
Precipitation  
Precipitation 0.23 in 0.16 in 2.82 in (2013)
Month to date precipitation 1.50 3.51  
Year to date precipitation 4.95 9.05  
Snow  
Snow 0.00 in 0.00 in T in (1955)
Month to date snowfall 0.0 0.1  
Since 1 July snowfall 20.1 29.1  
Snow Depth 0.00 in    
Sea Level Pressure  
Sea Level Pressure 29.91 in    
Wind  
Wind Speed 13 mph (NE)    
Max Wind Speed 23 mph    
Max Gust Speed 28 mph    
Visibility 9 miles    
Events Rain , Thunderstorm    
T = Trace of Precipitation, MM = Missing Value Source: NWS Daily Summary

Daily Weather History Graph

Daily Weather History Graph

Search for Another Location

Airport or City:

Trip Planner

Search our weather history database for the weather conditions in past years. The results will help you decide how hot, cold, wet, or windy it might be!

Date:

Astronomy

May. 25, 2012 Rise Set
Actual Time 6:07 AM CDT 8:53 PM CDT
Civil Twilight 5:34 AM CDT 9:26 PM CDT
Nautical Twilight 4:54 AM CDT 10:07 PM CDT
Astronomical Twilight 4:07 AM CDT 10:53 PM CDT
Moon 10:08 AM CDT (5/25) No Moon Set
Length of Visible Light 15h 51m
Length of Day
14h 46m
Waxing Crescent, 20% of the Moon is Illuminated
May 25
Waxing Crescent
May 28
First Quarter
Jun 4
Full
Jun 11
Last Quarter
Jun 19
New

Hourly Weather History & Observations

Time (CDT) Temp. Dew Point Humidity Pressure Visibility Wind Dir Wind Speed Gust Speed Precip Events Conditions
12:53 AM 55.9 °F 50.0 °F 80% 29.85 in 10.0 mi North 5.8 mph - N/A   Mostly Cloudy
1:53 AM 55.9 °F 50.0 °F 80% 29.90 in 10.0 mi NNW 4.6 mph - N/A   Mostly Cloudy
2:53 AM 55.0 °F 51.1 °F 86% 29.89 in 10.0 mi North 6.9 mph - N/A   Overcast
3:53 AM 54.0 °F 51.1 °F 90% 29.88 in 10.0 mi North 5.8 mph - N/A   Overcast
4:53 AM 53.1 °F 51.1 °F 93% 29.87 in 10.0 mi East 8.1 mph - 0.01 in Rain Light Rain
5:53 AM 54.0 °F 52.0 °F 93% 29.93 in 10.0 mi NNW 10.4 mph - 0.00 in   Overcast
6:53 AM 54.0 °F 52.0 °F 93% 29.91 in 10.0 mi ESE 6.9 mph - 0.01 in   Mostly Cloudy
7:53 AM 55.0 °F 53.1 °F 93% 29.90 in 10.0 mi SE 6.9 mph - N/A   Scattered Clouds
8:53 AM 60.1 °F 54.0 °F 80% 29.90 in 10.0 mi SE 6.9 mph - N/A   Mostly Cloudy
9:53 AM 60.1 °F 55.0 °F 83% 29.93 in 10.0 mi North 9.2 mph - N/A   Overcast
10:23 AM 57.2 °F 55.4 °F 94% 29.97 in 9.0 mi North 13.8 mph - N/A   Overcast
10:32 AM 57.2 °F 55.4 °F 94% 29.97 in 10.0 mi North 15.0 mph - N/A   Overcast
10:53 AM 57.9 °F 54.0 °F 87% 29.96 in 10.0 mi North 13.8 mph - N/A   Overcast
11:20 AM 57.2 °F 53.6 °F 88% 29.99 in 10.0 mi NNE 12.7 mph - N/A   Overcast
11:53 AM 60.1 °F 55.0 °F 83% 29.96 in 10.0 mi NE 15.0 mph - N/A   Overcast
12:53 PM 60.1 °F 55.0 °F 83% 29.97 in 10.0 mi NE 13.8 mph - N/A   Overcast
1:09 PM 60.8 °F 55.4 °F 82% 29.96 in 10.0 mi NE 16.1 mph - N/A   Overcast
1:27 PM 60.8 °F 55.4 °F 82% 29.95 in 1.8 mi ENE 16.1 mph - N/A   Haze
1:33 PM 62.6 °F 55.4 °F 77% 29.95 in 3.0 mi NE 16.1 mph - N/A   Haze
1:53 PM 62.1 °F 55.0 °F 78% 29.94 in 10.0 mi NE 18.4 mph - N/A   Overcast
2:53 PM 62.1 °F 55.9 °F 80% 29.91 in 10.0 mi NE 18.4 mph 24.2 mph N/A   Overcast
3:53 PM 64.9 °F 55.9 °F 73% 29.90 in 10.0 mi NE 19.6 mph - N/A   Mostly Cloudy
4:53 PM 68.0 °F 57.9 °F 70% 29.89 in 10.0 mi ENE 16.1 mph - N/A   Mostly Cloudy
5:14 PM 66.2 °F 57.2 °F 73% 29.91 in 10.0 mi ENE 17.3 mph 24.2 mph N/A   Overcast
5:22 PM 66.2 °F 57.2 °F 73% 29.91 in 10.0 mi ENE 17.3 mph - N/A   Overcast
5:53 PM 68.0 °F 57.0 °F 68% 29.89 in 10.0 mi ENE 18.4 mph - N/A   Overcast
6:53 PM 64.9 °F 59.0 °F 81% 29.87 in 10.0 mi ENE 18.4 mph 26.5 mph N/A   Overcast
7:53 PM 64.0 °F 57.9 °F 80% 29.86 in 10.0 mi ENE 16.1 mph 26.5 mph N/A   Overcast
8:53 PM 63.0 °F 57.0 °F 81% 29.87 in 10.0 mi ENE 17.3 mph - N/A   Overcast
9:37 PM 62.6 °F 57.2 °F 82% 29.89 in 10.0 mi NE 16.1 mph - N/A   Overcast
9:53 PM 62.1 °F 57.9 °F 86% 29.86 in 10.0 mi ENE 17.3 mph - N/A   Overcast
10:15 PM 60.8 °F 59.0 °F 94% 29.88 in 4.0 mi NE 16.1 mph - 0.12 in Rain , Thunderstorm Heavy Thunderstorms and Rain
10:53 PM 62.1 °F 59.0 °F 90% 29.90 in 10.0 mi ENE 10.4 mph - 0.21 in Rain , Thunderstorm Light Rain
11:07 PM 62.6 °F 59.0 °F 88% 29.91 in 10.0 mi East 8.1 mph - 0.00 in Rain Light Rain
11:53 PM 62.1 °F 59.0 °F 90% 29.85 in 10.0 mi East 15.0 mph - 0.00 in   Scattered Clouds